Weather History for Olean, NY

Change the Weather History Date:

Tuesday, August 20, 2013

  Actual Average (KBFD) Record (KBFD)
Temperature  
Mean Temperature 64 °F 64 °F  
Max Temperature 77 °F 75 °F 84 °F (1959)
Min Temperature 51 °F 52 °F 35 °F (1998)
Degree Days  
Heating Degree Days 1 1  
Month to date heating degree days 12  
Since 1 June heating degree days 221  
Since 1 July heating degree days 76  
Cooling Degree Days 0 2  
Month to date cooling degree days 40  
Year to date cooling degree days 164  
Since 1 June cooling degree days 154  
Growing Degree Days 14 (Base 50)    
Moisture  
Dew Point 57 °F    
Average Humidity 80    
Maximum Humidity 100    
Minimum Humidity 50    
Precipitation  
Precipitation 0.00 in 0.14 in 1.95 in (1999)
Month to date precipitation 2.68  
Year to date precipitation 28.52  
Sea Level Pressure  
Sea Level Pressure 30.19 in    
Wind  
Wind Speed 1 mph (West)    
Max Wind Speed 7 mph    
Max Gust Speed -    
Visibility 9 miles    
Events Fog    
T = Trace of Precipitation, MM = Missing Value Source: NWS Daily Summary

Daily Weather History Graph

Daily Weather History Graph

Search for Another Location

Airport:

Trip Planner

Search our weather history database for the weather conditions in past years. The results will help you decide how hot, cold, wet, or windy it might be!

Date:

Astronomy

Aug. 20, 2013 Rise Set
Actual Time 6:26 AM EDT 8:06 PM EDT
Civil Twilight 5:56 AM EDT 8:36 PM EDT
Nautical Twilight 5:20 AM EDT 9:11 PM EDT
Astronomical Twilight 4:41 AM EDT 9:50 PM EDT
Moon 7:35 PM EDT (8/20) 5:54 AM EDT (8/20)
Length of Visible Light 14h 39m
Length of Day
13h 40m
Full, 100% of the Moon is Illuminated
Aug 20
Full
Aug 20
Full
Aug 28
Last Quarter
Sep 5
New
Sep 12
First Quarter

Hourly Weather History & Observations

Time (EDT) Temp. Dew Point Humidity Pressure Visibility Wind Dir Wind Speed Gust Speed Precip Events Conditions
12:15 AM 60.8 °F 57.2 °F 88% 30.14 in 10.0 mi Calm Calm - N/A   Clear
12:35 AM 60.8 °F 59.0 °F 94% 30.15 in 10.0 mi Calm Calm - N/A   Clear
12:55 AM 59.0 °F 57.2 °F 94% 30.15 in 7.0 mi Calm Calm - N/A   Clear
1:15 AM 57.2 °F 57.2 °F 100% 30.15 in 5.0 mi Calm Calm - N/A   Clear
1:35 AM 59.0 °F 59.0 °F 100% 30.14 in 7.0 mi Calm Calm - N/A   Clear
1:55 AM 59.0 °F 59.0 °F 100% 30.15 in 7.0 mi Calm Calm - N/A   Clear
2:15 AM 59.0 °F 59.0 °F 100% 30.15 in 7.0 mi Calm Calm - N/A   Clear
2:35 AM 59.0 °F 57.2 °F 94% 30.14 in 4.0 mi Calm Calm - N/A   Clear
2:55 AM 59.0 °F 59.0 °F 100% 30.15 in 5.0 mi Calm Calm - N/A   Clear
3:15 AM 57.2 °F 57.2 °F 100% 30.15 in 7.0 mi Calm Calm - N/A   Clear
3:35 AM 55.4 °F 55.4 °F 100% 30.15 in 2.0 mi Calm Calm - N/A   Clear
3:55 AM 57.2 °F 55.4 °F 94% 30.15 in 10.0 mi Calm Calm - N/A   Clear
4:15 AM 55.4 °F 55.4 °F 100% 30.15 in 7.0 mi Calm Calm - N/A   Clear
4:35 AM 55.4 °F 55.4 °F 100% 30.15 in 7.0 mi Calm Calm - N/A   Clear
4:55 AM 55.4 °F 55.4 °F 100% 30.15 in 10.0 mi Calm Calm - N/A   Clear
5:15 AM 55.4 °F 53.6 °F 94% 30.16 in 10.0 mi Calm Calm - N/A   Clear
5:35 AM 55.4 °F 53.6 °F 94% 30.17 in 7.0 mi Calm Calm - N/A   Clear
5:55 AM 53.6 °F 53.6 °F 100% 30.17 in 0.2 mi Calm Calm - N/A Fog Fog
6:15 AM 51.8 °F 51.8 °F 100% 30.18 in 1.5 mi Calm Calm - N/A   Mostly Cloudy
6:35 AM 53.6 °F 53.6 °F 100% 30.18 in 4.0 mi Calm Calm - N/A   Scattered Clouds
6:55 AM 51.8 °F 51.8 °F 100% 30.19 in 1.0 mi Calm Calm - N/A   Mist
7:15 AM 53.6 °F 53.6 °F 100% 30.19 in 7.0 mi Calm Calm - N/A   Scattered Clouds
7:35 AM 53.6 °F 53.6 °F 100% 30.20 in 7.0 mi Calm Calm - N/A   Clear
7:55 AM 53.6 °F 53.6 °F 100% 30.20 in 3.0 mi Calm Calm - N/A   Clear
8:15 AM 55.4 °F 55.4 °F 100% 30.21 in 10.0 mi Calm Calm - N/A   Clear
8:35 AM 55.4 °F 55.4 °F 100% 30.21 in 10.0 mi Calm Calm - N/A   Scattered Clouds
8:55 AM 59.0 °F 55.4 °F 88% 30.21 in 10.0 mi WSW 3.5 mph - N/A   Clear
9:15 AM 59.0 °F 55.4 °F 88% 30.21 in 10.0 mi SW 3.5 mph - N/A   Clear
9:35 AM 59.0 °F 57.2 °F 94% 30.22 in 10.0 mi Calm Calm - N/A   Clear
9:55 AM 60.8 °F 57.2 °F 88% 30.22 in 10.0 mi Calm Calm - N/A   Clear
10:15 AM 62.6 °F 57.2 °F 82% 30.22 in 10.0 mi Calm Calm - N/A   Clear
10:35 AM 64.4 °F 59.0 °F 83% 30.23 in 10.0 mi Calm Calm - N/A   Clear
10:55 AM 66.2 °F 59.0 °F 78% 30.23 in 10.0 mi SW 3.5 mph - N/A   Clear
11:15 AM 68.0 °F 60.8 °F 78% 30.23 in 10.0 mi SW 4.6 mph - N/A   Clear
11:35 AM 69.8 °F 60.8 °F 73% 30.22 in 10.0 mi WSW 4.6 mph - N/A   Clear
11:55 AM 71.6 °F 60.8 °F 69% 30.22 in 10.0 mi Calm Calm - N/A   Clear
12:15 PM 71.6 °F 57.2 °F 60% 30.22 in 10.0 mi WNW 5.8 mph - N/A   Clear
12:35 PM 71.6 °F 57.2 °F 60% 30.22 in 10.0 mi WNW 5.8 mph - N/A   Clear
12:55 PM 71.6 °F 57.2 °F 60% 30.22 in 10.0 mi WNW 6.9 mph - N/A   Clear
1:15 PM 73.4 °F 59.0 °F 61% 30.21 in 10.0 mi West 3.5 mph - N/A   Clear
1:35 PM 73.4 °F 57.2 °F 57% 30.22 in 10.0 mi Calm Calm - N/A   Scattered Clouds
1:55 PM 73.4 °F 57.2 °F 57% 30.21 in 10.0 mi WSW 3.5 mph - N/A   Clear
2:15 PM 75.2 °F 57.2 °F 53% 30.21 in 10.0 mi WSW 5.8 mph - N/A   Clear
2:35 PM 75.2 °F 57.2 °F 53% 30.21 in 10.0 mi WNW 5.8 mph - N/A   Clear
2:55 PM 75.2 °F 57.2 °F 53% 30.20 in 10.0 mi WSW 3.5 mph - N/A   Clear
3:15 PM 75.2 °F 55.4 °F 50% 30.20 in 10.0 mi WNW 5.8 mph - N/A   Scattered Clouds
3:35 PM 77.0 °F 57.2 °F 50% 30.20 in 10.0 mi WSW 3.5 mph - N/A   Scattered Clouds
3:55 PM 75.2 °F 59.0 °F 57% 30.19 in 10.0 mi WNW 6.9 mph - N/A   Scattered Clouds
4:15 PM 77.0 °F 59.0 °F 54% 30.19 in 10.0 mi Calm Calm - N/A   Mostly Cloudy
4:35 PM 77.0 °F 59.0 °F 54% 30.19 in 10.0 mi West 5.8 mph - N/A   Mostly Cloudy
4:55 PM 73.4 °F 57.2 °F 57% 30.19 in 10.0 mi Calm Calm - N/A   Clear
5:15 PM 77.0 °F 59.0 °F 54% 30.19 in 10.0 mi WNW 5.8 mph - N/A   Scattered Clouds
5:35 PM 75.2 °F 59.0 °F 57% 30.18 in 10.0 mi WNW 4.6 mph - N/A   Scattered Clouds
5:55 PM 73.4 °F 59.0 °F 61% 30.18 in 10.0 mi Calm Calm - N/A   Scattered Clouds
6:15 PM 73.4 °F 59.0 °F 61% 30.19 in 10.0 mi Calm Calm - N/A   Mostly Cloudy
6:35 PM 73.4 °F 59.0 °F 61% 30.18 in 10.0 mi Calm Calm - N/A   Scattered Clouds
6:55 PM 73.4 °F 59.0 °F 61% 30.18 in 10.0 mi NW 3.5 mph - N/A   Clear
7:15 PM 71.6 °F 59.0 °F 64% 30.18 in 10.0 mi Calm Calm - N/A   Clear
7:35 PM 69.8 °F 59.0 °F 68% 30.18 in 10.0 mi NW 3.5 mph - N/A   Clear
7:55 PM 68.0 °F 60.8 °F 78% 30.19 in 10.0 mi NW 3.5 mph - N/A   Clear
8:15 PM 68.0 °F 60.8 °F 78% 30.19 in 10.0 mi NW 3.5 mph - N/A   Clear
8:35 PM 66.2 °F 60.8 °F 83% 30.20 in 10.0 mi NW 3.5 mph - N/A   Clear
8:55 PM 64.4 °F 60.8 °F 88% 30.20 in 10.0 mi Calm Calm - N/A   Clear
9:15 PM 64.4 °F 60.8 °F 88% 30.21 in 10.0 mi Calm Calm - N/A   Clear
9:35 PM 64.4 °F 60.8 °F 88% 30.21 in 10.0 mi Calm Calm - N/A   Clear
9:55 PM 64.4 °F 60.8 °F 88% 30.21 in 10.0 mi Calm Calm - N/A   Clear
10:15 PM 64.4 °F 57.2 °F 77% 30.22 in 10.0 mi Calm Calm - N/A   Clear
10:35 PM 64.4 °F 55.4 °F 73% 30.22 in 10.0 mi Calm Calm - N/A   Clear
10:55 PM 64.4 °F 55.4 °F 73% 30.22 in 10.0 mi Calm Calm - N/A   Clear
11:15 PM 64.4 °F 57.2 °F 77% 30.23 in 10.0 mi Calm Calm - N/A   Clear
11:35 PM 64.4 °F 55.4 °F 73% 30.23 in 10.0 mi Calm Calm - N/A   Clear
11:55 PM 64.4 °F 59.0 °F 83% 30.23 in 10.0 mi SSW 4.6 mph - N/A   Clear